Regional Weather Roundup
Issued by NWS

Home | Current Version | Previous Version | Text Only | Print | Product List | Glossary Off
Versions: 1 2 3 4 5 6 7 8 9 10 11 12 13 14 15 16 17 18 19 20 21 22 23 24 25 26 27 28 29 30 31 32 33 34 35 36 37 38 39 40 41 42 43 44 45 46 47 48 49 50

715
ASUS43 KMPX 251010
RWRMN
WEATHER ROUNDUP FOR MINNESOTA
NATIONAL WEATHER SERVICE TWIN CITIES/CHANHASSEN MN
500 AM CDT FRI MAY 25 2018


NOTE: "FAIR" INDICATES FEW OR NO CLOUDS BELOW 12,000 FEET WITH NO
SIGNIFICANT WEATHER AND/OR OBSTRUCTIONS TO VISIBILITY. N/A MEANS
CURRENT SKY AND/OR WEATHER CONDITIONS ARE NOT AVAILABLE.

MNZ060>063-068>070-251100-
   Twin Cities Metro

CITY           SKY/WX    TMP DP  RH WIND       PRES   REMARKS
TWIN CITIES    CLOUDY    67  64  90 SE14G25   29.82F
ST PAUL        LGT RAIN  66  64  93 E10       29.84F
CRYSTAL        FAIR      66  62  87 SE7       29.81S
BLAINE         FAIR      66  66 100 SE15      29.82S
LAKEVILLE      TSTM      64  64 100 CALM      29.83F
EDEN PRAIRIE   MOCLDY    69  62  78 S9        29.81F
SOUTH ST PAUL  TSTM      65  65  99 SE7       29.85F
LAKE ELMO      LGT RAIN  64  63  94 S14       29.88R
$$
MNZ001>005-007-008-013>017-022>024-027-028-251100-
   Northwest Minnesota

CITY           SKY/WX    TMP DP  RH WIND       PRES   REMARKS
BEMIDJI        FAIR      64  61  89 SW5       29.71F
HALLOCK        FAIR      55  52  88 S7        29.65S
ROSEAU         FAIR      64  57  77 SW8       29.64S
WARROAD        FAIR      64  61  88 SW8       29.64S
THIEF RVR FALL FAIR      62  56  80 SW8       29.69S
CROOKSTON      FAIR      59  55  88 SW6       29.69S
FOSSTON        FAIR      59  55  88 S7        29.71S
DETROIT LAKES  FAIR      64  59  82 SW5       29.74F
MOORHEAD       FAIR      64  55  72 SW5       29.72S
PARK RAPIDS    FAIR      63  60  90 S5        29.73F
MAHNOMEN       FAIR      60  57  89 S8        29.71F
$$
MNZ006-009>011-018-025>026-251100-
   North Central Minnesota

CITY           SKY/WX    TMP DP  RH WIND       PRES   REMARKS
BAUDETTE       FAIR      63  61  93 SW7       29.63F
FLAG ISLAND    FAIR      63  61  94 SW12      29.60S
INTL FALLS     FAIR      62  62 100 S5        29.66F
WASKISH          N/A     64  61  88 CALM      29.68S
BIG FORK       FAIR      64  59  82 S7        29.71S
LONGVILLE      FAIR      66  61  82 S5        29.74F
GRAND RAPIDS   MOCLDY    66  60  81 S9        29.75F
CRANE LAKE     FAIR      61  61 100 CALM      29.71F
ORR            FAIR      63  59  88 S6        29.68F
COOK           FAIR      66  61  82 S6        29.72F
WALKER         FAIR      64  59  86 SW6       29.72F
$$
MNZ012-019>021-037-251100-
   Northeast Minnesota

CITY           SKY/WX    TMP DP  RH WIND       PRES   REMARKS
DULUTH         FAIR      67  60  78 SW14      29.77F
ELY            FAIR      66  57  72 SW8       29.73F
HIBBING        FAIR      64  58  80 CALM      29.73F
EVELETH        FAIR     N/A N/A N/A SW5       29.75F
DULUTH HARBOR  FAIR      54  52  94 CALM      29.77F
TWO HARBORS    FAIR      61  55  82 SW3       29.74F
SILVER BAY     FAIR      57  57 100 CALM      29.74F
GRAND MARAIS     N/A     47  46  97 CALM      29.75F
G MARAIS ARPRT FAIR      61  55  82 SW3       29.78F
$$
MNZ029>031-032-039>041-046>048-054>057-064-251100-
   West Central Minnesota

CITY           SKY/WX    TMP DP  RH WIND       PRES   REMARKS
FERGUS FALLS   FAIR      64  61  88 SW5       29.71S
WHEATON        PTCLDY    68  61  77 SW7       29.77S
MORRIS         PTCLDY    63  61  94 SW6       29.76F
ALEXANDRIA     FAIR      68  61  78 S9        29.79S
ELBOW LAKE     FAIR      60  59  96 S8        29.76S
WADENA         FAIR      63  63 100 S6        29.74F
GLENWOOD       FAIR      63  61  94 S7        29.73F
APPLETON       CLEAR     66  59  77 SW3       29.77F
BENSON         PTCLDY    64  61  88 S8        29.79F
ORTONVILLE     PTCLDY    64  61  88 W5        29.78S
MADISON        CLEAR     66  61  82 SW5       29.78F
WILLMAR        FAIR      66  61  82 CALM      29.82S
$$
MNZ033>034-036-042>043-049>051-058-059-251100-
   Central Minnesota

CITY           SKY/WX    TMP DP  RH WIND       PRES   REMARKS
ST CLOUD       FAIR      66  60  81 S7        29.78F
SAUK CENTRE    PTSUNNY   66  59  78 S9        29.78F
PAYNESVILLE    FAIR      68  62  81 S10       29.79F
PINE RIVER     FAIR      63  57  82 S3        29.78F
BRAINERD       FAIR      68  60  75 S9        29.76F
STAPLES        FAIR      63  59  88 S7        29.76F
LONG PRAIRIE   FAIR      63  61  94 CALM      29.78F
LITTLE FALLS   CLOUDY    64  63  94 SE5       29.78S
LITCHFIELD     FAIR      68  63  83 CALM      29.80F
BUFFALO        FAIR      65  61  84 CALM      29.81S
MAPLE LAKE     FAIR      67  63  86 CALM      29.80F
HUTCHINSON     FAIR      69  63  81 SE6       29.81F
$$
MNZ037-044-045-052-053-251100-
   East Central Minnesota

CITY           SKY/WX    TMP DP  RH WIND       PRES   REMARKS
PRINCETON      FAIR      70  61  73 S5        29.79F
MORA           FAIR      64  59  82 S5        29.81F
CAMBRIDGE      FAIR      72  59  64 S9        29.80F
RUSH CITY      FAIR      66  61  83 S7        29.80F
MOOSE LAKE     FAIR      66  61  82 S6        29.76F
HINCKLEY       FAIR      68  63  83 S6        29.79F
CLOQUET        FAIR      66  59  77 S9        29.77F
MCGREGOR       FAIR      68  61  77 S7        29.76F
$$
MNZ071>073-080-081-089-090-097-098-251100-
   Southwest Minnesota

CITY           SKY/WX    TMP DP  RH WIND       PRES   REMARKS
MONTEVIDEO     PTCLDY    64  61  88 SW3       29.79S
GRANITE FALLS  CLOUDY    64  61  88 S7        29.81S
CANBY          PTCLDY    69  58  67 SW6       29.80S
MARSHALL       CLOUDY    69  61  75 SW12      29.80F
REDWOOD FALLS  CLOUDY    66  64  93 S3        29.79F
OLIVIA         MOCLDY    68  63  83 S7        29.79F
PIPESTONE      CLOUDY    66  61  82 SW7       29.83S
WORTHINGTON    CLOUDY    70  64  81 S14       29.84F
JACKSON        CLOUDY    68  63  83 S10       29.85S
TRACY          MOCLDY    71  65  81 SW10      29.81F
SLAYTON        RAIN      69  63  79 SW14      29.83S
$$
MNZ065>067-074>077-082>085-091>093-251100-
   South Central Minnesota

CITY           SKY/WX    TMP DP  RH WIND       PRES   REMARKS
MANKATO        CLOUDY    71  64  78 SE8       29.82F
NEW ULM        CLOUDY    70  63  78 CALM      29.80F
ST JAMES       CLOUDY    70  64  83 S7        29.82F
FAIRMONT       PTCLDY    70  64  81 S13       29.84S
GLENCOE        FAIR      67  67  98 SE8       29.80F
FARIBAULT      FAIR      70  63  78 CALM      29.85F
OWATONNA       FAIR      68  63  83 N9        29.86R
WASECA         FAIR      70  63  78 S10G16    29.85S
ALBERT LEA     FAIR      70  61  73 S7        29.85F
$$
MNZ078>079-086>088-094>096-251100-
   Southeast Minnesota

CITY           SKY/WX    TMP DP  RH WIND       PRES   REMARKS
ROCHESTER      FAIR      66  61  84 S8        29.87F
RED WING       CLOUDY    66  63  88 NE13G20   29.88R
STANTON        CLOUDY    69  63  83 E9        29.85F
DODGE CENTER   FAIR      70  61  73 S13       29.86F
WINONA         FAIR      64  63  94 CALM      29.86F
AUSTIN         FAIR      68  61  77 S5        29.86F
PRESTON        FAIR      67  61  81 S8        29.89F
$$
ABBREVIATIONS USED IN REMARKS
   TC - TEMPERATURES IN CELSIUS
  WCI - WIND CHILL INDEX
   HX - HEAT INDEX
  VSB - VISIBILITY
$$




USA.gov is the U.S. government's official web portal to all federal, state and local government web resources and services.